When you browse on this site, cookies collect data to enhance your experience and personalize the content and advertising you see.
Visit our Privacy Policy to learn more. By continuing to use the site, you agree to this use of cookies and data.
  • In France
  • List of Countries
  • For 7 days
  • Water Temperature
  • Weather Map
  • Weather Widgets
  • user-avatar
    Login

    Hourly Weather Zaafrana

    Today, 21 August, Wednesday

    Time Temperature Precipitation Wind Pressure Humidity
    00:00 +27°C° 0 mm 2 mps 743 mmHg 49%
    01:00 +26°C° 0 mm 2 mps 743 mmHg 53%
    02:00 +26°C° 0 mm 2 mps 743 mmHg 57%
    03:00 +25°C° 0 mm 2 mps 743 mmHg 57%
    04:00 +25°C° 0 mm 2 mps 743 mmHg 56%
    05:00 +25°C° 0 mm 2 mps 743 mmHg 55%
    06:00 +27°C° 0 mm 3 mps 743 mmHg 49%
    07:00 +29°C° 0 mm 3 mps 743 mmHg 42%
    08:00 +31°C° 0 mm 3 mps 744 mmHg 36%
    09:00 +34°C° 0 mm 4 mps 743 mmHg 33%
    10:00 +35°C° 0 mm 4 mps 743 mmHg 29%
    11:00 +37°C° 0 mm 4 mps 743 mmHg 26%
    12:00 +38°C° 0 mm 4 mps 743 mmHg 24%
    13:00 +39°C° 0 mm 5 mps 742 mmHg 22%
    14:00 +40°C° 0 mm 5 mps 742 mmHg 21%
    15:00 +40°C° 0 mm 5 mps 742 mmHg 21%
    16:00 +40°C° 0 mm 5 mps 741 mmHg 21%
    17:00 +39°C° 0 mm 6 mps 741 mmHg 21%
    18:00 +36°C° 0 mm 5 mps 741 mmHg 26%
    19:00 +34°C° 0 mm 5 mps 742 mmHg 32%
    20:00 +30°C° 0 mm 4 mps 742 mmHg 37%
    21:00 +29°C° 0 mm 4 mps 742 mmHg 40%
    22:00 +28°C° 0 mm 4 mps 742 mmHg 43%
    23:00 +28°C° 0 mm 3 mps 742 mmHg 46%

    Tomorrow, 22 August, Thursday

    Time Temperature Precipitation Wind Pressure Humidity
    00:00 +27°C° 0 mm 3 mps 742 mmHg 45%
    01:00 +26°C° 0 mm 3 mps 742 mmHg 43%
    02:00 +26°C° 0 mm 3 mps 742 mmHg 42%
    03:00 +26°C° 0 mm 3 mps 742 mmHg 42%
    04:00 +26°C° 0 mm 3 mps 742 mmHg 41%
    05:00 +25°C° 0 mm 4 mps 742 mmHg 41%
    06:00 +27°C° 0 mm 4 mps 742 mmHg 36%
    07:00 +29°C° 0 mm 4 mps 742 mmHg 31%
    08:00 +32°C° 0 mm 4 mps 742 mmHg 26%
    09:00 +34°C° 0 mm 5 mps 742 mmHg 23%
    10:00 +36°C° 0 mm 5 mps 742 mmHg 20%
    11:00 +37°C° 0 mm 5 mps 741 mmHg 17%
    12:00 +39°C° 0 mm 5 mps 741 mmHg 16%
    13:00 +41°C° 0 mm 5 mps 741 mmHg 15%
    14:00 +42°C° 0 mm 5 mps 740 mmHg 14%
    15:00 +41°C° 0 mm 6 mps 740 mmHg 15%
    16:00 +41°C° 0 mm 6 mps 740 mmHg 16%
    17:00 +40°C° 0 mm 6 mps 739 mmHg 18%
    18:00 +38°C° 0 mm 6 mps 740 mmHg 26%
    19:00 +34°C° 0 mm 5 mps 740 mmHg 34%
    20:00 +30°C° 0 mm 5 mps 741 mmHg 42%
    21:00 +29°C° 0 mm 5 mps 741 mmHg 47%
    22:00 +28°C° 0 mm 4 mps 741 mmHg 53%
    23:00 +27°C° 0 mm 4 mps 742 mmHg 58%

    Day after tomorrow, 23 August, Friday

    Time Temperature Precipitation Wind Pressure Humidity
    00:00 +27°C° 0 mm 4 mps 741 mmHg 57%
    01:00 +26°C° 0 mm 4 mps 741 mmHg 56%
    02:00 +26°C° 0 mm 4 mps 740 mmHg 54%
    03:00 +26°C° 0 mm 3 mps 740 mmHg 52%
    04:00 +25°C° 0 mm 3 mps 740 mmHg 49%
    05:00 +25°C° 0 mm 3 mps 740 mmHg 46%
    06:00 +27°C° 0 mm 4 mps 740 mmHg 42%
    07:00 +29°C° 0 mm 4 mps 740 mmHg 39%
    08:00 +32°C° 0 mm 5 mps 741 mmHg 35%
    09:00 +34°C° 0 mm 5 mps 741 mmHg 32%
    10:00 +36°C° 0 mm 5 mps 740 mmHg 28%
    11:00 +38°C° 0 mm 6 mps 740 mmHg 25%
    12:00 +40°C° 0 mm 6 mps 740 mmHg 23%
    13:00 +41°C° 0 mm 6 mps 739 mmHg 22%
    14:00 +42°C° 0 mm 6 mps 739 mmHg 20%
    15:00 +42°C° 0 mm 6 mps 739 mmHg 21%
    16:00 +41°C° 0 mm 6 mps 739 mmHg 21%
    17:00 +41°C° 0 mm 6 mps 739 mmHg 22%
    18:00 +37°C° 0 mm 5 mps 739 mmHg 29%
    19:00 +35°C° 0 mm 5 mps 740 mmHg 37%
    20:00 +32°C° 0 mm 4 mps 740 mmHg 44%
    21:00 +30°C° 0 mm 4 mps 740 mmHg 46%
    22:00 +29°C° 0 mm 4 mps 740 mmHg 48%
    23:00 +28°C° 0 mm 3 mps 740 mmHg 50%

    24 August, Saturday

    Time Temperature Precipitation Wind Pressure Humidity
    00:00 +28°C° 0 mm 3 mps 740 mmHg 48%
    01:00 +28°C° 0 mm 3 mps 740 mmHg 46%
    02:00 +27°C° 0 mm 3 mps 740 mmHg 44%
    03:00 +27°C° 0 mm 3 mps 740 mmHg 45%
    04:00 +26°C° 0 mm 3 mps 740 mmHg 46%
    05:00 +26°C° 0 mm 2 mps 740 mmHg 47%
    06:00 +28°C° 0 mm 3 mps 740 mmHg 42%
    07:00 +30°C° 0 mm 3 mps 741 mmHg 38%
    08:00 +33°C° 0 mm 3 mps 741 mmHg 34%
    09:00 +35°C° 0 mm 3 mps 741 mmHg 31%
    10:00 +37°C° 0 mm 3 mps 741 mmHg 27%
    11:00 +38°C° 0 mm 4 mps 741 mmHg 24%
    12:00 +40°C° 0 mm 4 mps 741 mmHg 22%
    13:00 +40°C° 0 mm 3 mps 740 mmHg 20%
    14:00 +42°C° 0 mm 3 mps 740 mmHg 19%
    15:00 +42°C° 0 mm 4 mps 740 mmHg 19%
    16:00 +42°C° 0 mm 4 mps 739 mmHg 19%
    17:00 +42°C° 0 mm 4 mps 739 mmHg 19%
    18:00 +38°C° 0 mm 4 mps 740 mmHg 24%
    19:00 +36°C° 0 mm 3 mps 740 mmHg 28%
    20:00 +34°C° 0 mm 3 mps 741 mmHg 32%
    21:00 +33°C° 0 mm 3 mps 741 mmHg 37%
    22:00 +31°C° 0 mm 2 mps 741 mmHg 41%
    23:00 +30°C° 0 mm 2 mps 741 mmHg 45%

    25 August, Sunday

    Time Temperature Precipitation Wind Pressure Humidity
    00:00 +30°C° 0 mm 2 mps 741 mmHg 47%
    01:00 +29°C° 0 mm 2 mps 741 mmHg 49%
    02:00 +28°C° 0 mm 2 mps 741 mmHg 51%
    03:00 +28°C° 0 mm 2 mps 741 mmHg 50%
    04:00 +28°C° 0 mm 2 mps 741 mmHg 49%
    05:00 +28°C° 0 mm 2 mps 741 mmHg 49%
    06:00 +30°C° 0 mm 2 mps 741 mmHg 42%
    07:00 +32°C° 0 mm 2 mps 742 mmHg 36%
    08:00 +35°C° 0 mm 2 mps 742 mmHg 30%
    09:00 +37°C° 0 mm 3 mps 742 mmHg 27%
    10:00 +38°C° 0 mm 3 mps 742 mmHg 24%
    11:00 +40°C° 0 mm 3 mps 742 mmHg 21%
    12:00 +42°C° 0 mm 3 mps 741 mmHg 20%
    13:00 +43°C° 0 mm 4 mps 741 mmHg 18%
    14:00 +44°C° 0 mm 4 mps 740 mmHg 17%
    15:00 +43°C° 0 mm 4 mps 740 mmHg 17%
    16:00 +43°C° 0 mm 4 mps 740 mmHg 18%
    17:00 +42°C° 0 mm 4 mps 740 mmHg 18%
    18:00 +40°C° 0 mm 4 mps 740 mmHg 22%
    19:00 +36°C° 0 mm 4 mps 741 mmHg 25%
    20:00 +34°C° 0 mm 4 mps 741 mmHg 29%
    21:00 +33°C° 0 mm 3 mps 741 mmHg 35%
    22:00 +31°C° 0 mm 3 mps 742 mmHg 41%
    23:00 +29°C° 0 mm 3 mps 742 mmHg 47%

    26 August, Monday

    Time Temperature Precipitation Wind Pressure Humidity
    00:00 +29°C° 0 mm 3 mps 742 mmHg 46%
    01:00 +29°C° 0 mm 3 mps 741 mmHg 44%
    02:00 +28°C° 0 mm 2 mps 741 mmHg 43%
    03:00 +28°C° 0 mm 2 mps 741 mmHg 42%
    04:00 +28°C° 0 mm 2 mps 741 mmHg 41%
    05:00 +28°C° 0 mm 2 mps 741 mmHg 40%
    06:00 +30°C° 0 mm 2 mps 742 mmHg 36%
    07:00 +32°C° 0 mm 2 mps 742 mmHg 31%
    08:00 +35°C° 0 mm 2 mps 742 mmHg 26%
    09:00 +37°C° 0 mm 3 mps 742 mmHg 24%
    10:00 +38°C° 0 mm 3 mps 742 mmHg 22%
    11:00 +40°C° 0 mm 3 mps 742 mmHg 19%
    12:00 +42°C° 0 mm 4 mps 741 mmHg 17%
    13:00 +43°C° 0 mm 4 mps 741 mmHg 16%
    14:00 +44°C° 0 mm 4 mps 741 mmHg 14%
    15:00 +43°C° 0 mm 5 mps 740 mmHg 15%
    16:00 +43°C° 0 mm 5 mps 740 mmHg 16%
    17:00 +42°C° 0 mm 5 mps 740 mmHg 17%
    18:00 +40°C° 0 mm 5 mps 741 mmHg 22%
    19:00 +36°C° 0 mm 4 mps 741 mmHg 27%
    20:00 +34°C° 0 mm 4 mps 742 mmHg 33%
    21:00 +32°C° 0 mm 4 mps 742 mmHg 38%
    22:00 +30°C° 0 mm 3 mps 742 mmHg 44%
    23:00 +29°C° 0 mm 3 mps 743 mmHg 50%
    Show more